(41359) = 1997 XW13 = 2000 AG55

Discovered at Socorro on 2000-01-04 by LINEAR.

Orbit

Orbit type: Jupiter Trojan

Note: WebGL enabled browser required.

epoch2024-03-31.0
epoch JD2460400.5
perihelion date2021-12-29.76918
perihelion JD2459578.26918
argument of perihelion (°)340.48972
ascending node (°)102.78972
inclination (°)6.76161
eccentricity0.0275091
perihelion distance (AU)5.0199316
Tisserand w.r.t. Jupiter3.0
ΔV w.r.t. Earth (km/sec)12.6
semimajor axis (AU)5.1619317
mean anomaly (°)69.10019
mean daily motion (°/day)0.08403990
aphelion distance (AU)5.304
period (years)11.73
P-vector [x]0.11476176
P-vector [y]0.92634732
P-vector [z]0.35876228
Q-vector [x]-0.98673538
Q-vector [y]0.06455720
Q-vector [z]0.14894849
absolute magnitude12.29
phase slope0.15
uncertainty0
referenceMPEC 2024-F28
observations used1166
oppositions22
arc length (days)12005
first opposition used1991
last opposition used2024
residual rms (arc-secs)0.72
perturbers coarse indicatorM-v
perturbers precise indicator003Ek
first observation date used1991-05-06.0
last observation date used2024-03-18.0
computer nameMPCLINUX
JD of orbit computation2456937.366884
perihelion JD uncertainty (days)1.4187E-03
argument of perihelion uncertainty (°)1.3087E-04
ascending node uncertainty (°)4.5146E-05
inclination uncertainty (°)4.2805E-06
eccentricity uncertainty 4.5702E-08
perihelion distance uncertainty (AU)2.3426E-07
Minimum Orbit Intersection Distances (in AU)
for orbit epoch: 2460400.5, reference: E2024-G95
Mercury4.71381
Venus4.30074
Earth4.03736
Mars3.41151
Jupiter0.09428
Saturn4.02137
Uranus13.323
Neptune24.761

Observations

1190 total observations over interval: 1991 05 06.14357 – 2024 03 18.149176
These data are available for download (format description).

Date (UT) J2000 RA J2000 Dec Magn Location Ref
1991 05 06.14357 13 36 58.65 -01 26 10.6 20.4 V 691 – Steward Observatory, Kitt Peak-Spacewatch MPS 79338
1991 05 06.16488 13 36 58.09 -01 26 08.7 20.5 V 691 – Steward Observatory, Kitt Peak-Spacewatch MPS 79338
1991 05 06.18836 13 36 57.42 -01 26 06.4 20.5 V 691 – Steward Observatory, Kitt Peak-Spacewatch MPS 79338
1997 12 04.09722 03 04 22.11 +10 35 38.8   809 – European Southern Observatory, La Silla MPS 8401
1997 12 04.13889 03 04 20.95 +10 35 37.1   809 – European Southern Observatory, La Silla MPS 8401
1997 12 05.11597 03 03 54.06 +10 34 53.6   809 – European Southern Observatory, La Silla MPS 8401
1997 12 05.15764 03 03 53.02 +10 34 51.8   809 – European Southern Observatory, La Silla MPS 8401
2000 01 04.30346 08 29 07.95 +21 36 49.2 19.1   704 – Lincoln Laboratory ETS, New Mexico MPS 9279
2000 01 04.31803 08 29 07.49 +21 36 51.1 19.1   704 – Lincoln Laboratory ETS, New Mexico MPS 9279
2000 01 04.33258 08 29 07.03 +21 36 53.5 19.3   704 – Lincoln Laboratory ETS, New Mexico MPS 9279
2000 01 06.31346 08 28 07.41 +21 42 16.4 17.5   704 – Lincoln Laboratory ETS, New Mexico MPS 9279
2000 01 06.32810 08 28 07.06 +21 42 17.6 18.1   704 – Lincoln Laboratory ETS, New Mexico MPS 9279
2000 01 06.34284 08 28 06.56 +21 42 20.4 17.5   704 – Lincoln Laboratory ETS, New Mexico MPS 9279
2000 01 06.35748 08 28 06.08 +21 42 23.2 17.9   704 – Lincoln Laboratory ETS, New Mexico MPS 9279
2000 01 13.23553 08 24 26.64 +22 01 14.6 18.9 R 699 – Lowell Observatory-LONEOS MPS 12155
2000 01 13.26096 08 24 25.80 +22 01 18.7   699 – Lowell Observatory-LONEOS MPS 12155
2000 01 13.28641 08 24 24.93 +22 01 23.0   699 – Lowell Observatory-LONEOS MPS 12155
2000 01 30.24323 08 14 44.67 +22 46 00.7 18.9   704 – Lincoln Laboratory ETS, New Mexico MPS 10136
2000 01 30.25814 08 14 44.18 +22 46 02.5 19.4   704 – Lincoln Laboratory ETS, New Mexico MPS 10136
2000 01 30.27302 08 14 43.62 +22 46 05.9 20.2   704 – Lincoln Laboratory ETS, New Mexico MPS 10136
2000 01 31.23947 08 14 10.74 +22 48 25.5 18.9   704 – Lincoln Laboratory ETS, New Mexico MPS 10136
2000 01 31.25443 08 14 10.28 +22 48 27.8 19.2   704 – Lincoln Laboratory ETS, New Mexico MPS 10136
2000 01 31.26929 08 14 09.77 +22 48 30.8 19.3   704 – Lincoln Laboratory ETS, New Mexico MPS 10136
2000 02 11.25195 08 08 16.07 +23 12 38.5 19.8   704 – Lincoln Laboratory ETS, New Mexico MPS 10136
2000 02 11.26657 08 08 15.60 +23 12 41.9 19.4   704 – Lincoln Laboratory ETS, New Mexico MPS 10136
2000 02 11.28110 08 08 15.09 +23 12 43.5 19.8   704 – Lincoln Laboratory ETS, New Mexico MPS 10136
2001 01 19.40851 11 01 37.48 +13 00 24.7 19.2   704 – Lincoln Laboratory ETS, New Mexico MPS 25106
2001 01 19.42406 11 01 37.24 +13 00 26.5 19.2   704 – Lincoln Laboratory ETS, New Mexico MPS 25106
2001 01 19.43976 11 01 37.02 +13 00 30.0 18.7   704 – Lincoln Laboratory ETS, New Mexico MPS 25106
2001 01 19.45742 11 01 36.72 +13 00 33.1 19.5   704 – Lincoln Laboratory ETS, New Mexico MPS 25106
2001 01 19.47454 11 01 36.51 +13 00 36.9 19.2   704 – Lincoln Laboratory ETS, New Mexico MPS 25106
2001 02 01.35000 10 57 39.21 +13 42 54.7 18.9   704 – Lincoln Laboratory ETS, New Mexico MPS 25106
2001 02 01.36486 10 57 38.80 +13 42 56.1 18.5   704 – Lincoln Laboratory ETS, New Mexico MPS 25106
2001 02 01.37972 10 57 38.45 +13 42 59.7 19.1   704 – Lincoln Laboratory ETS, New Mexico MPS 25106
2001 02 01.39459 10 57 38.17 +13 43 03.1 19.1   704 – Lincoln Laboratory ETS, New Mexico MPS 25106
2001 02 17.30805 10 50 39.07 +14 41 54.9 18.7   704 – Lincoln Laboratory ETS, New Mexico MPS 26620
2001 02 17.32219 10 50 38.65 +14 41 58.2 18.9   704 – Lincoln Laboratory ETS, New Mexico MPS 26620
2001 02 17.33632 10 50 38.25 +14 42 01.4 19.4   704 – Lincoln Laboratory ETS, New Mexico MPS 26620
2001 02 17.36455 10 50 37.36 +14 42 07.6 19.3   704 – Lincoln Laboratory ETS, New Mexico MPS 26620
2001 02 19.20012 10 49 43.09 +14 48 57.8 18.3 R 699 – Lowell Observatory-LONEOS MPS 26620
2001 02 19.23911 10 49 41.92 +14 49 07.7   699 – Lowell Observatory-LONEOS MPS 26620
2001 02 19.27821 10 49 40.66 +14 49 14.5   699 – Lowell Observatory-LONEOS MPS 26620
2001 02 19.31756 10 49 39.54 +14 49 23.6   699 – Lowell Observatory-LONEOS MPS 26620
2001 02 19.33270 10 49 39.04 +14 49 27.2 18.8   704 – Lincoln Laboratory ETS, New Mexico MPS 26620
2001 02 19.34690 10 49 38.60 +14 49 29.7 19.2   704 – Lincoln Laboratory ETS, New Mexico MPS 26620
2001 02 19.36133 10 49 38.16 +14 49 34.4 19.5   704 – Lincoln Laboratory ETS, New Mexico MPS 26620
2001 02 19.37715 10 49 37.71 +14 49 38.2 19.6   704 – Lincoln Laboratory ETS, New Mexico MPS 26620
2001 02 20.35213 10 49 08.50 +14 53 14.1 18.3   704 – Lincoln Laboratory ETS, New Mexico MPS 26620
2001 02 20.36164 10 49 08.24 +14 53 15.6 18.9   704 – Lincoln Laboratory ETS, New Mexico MPS 26620
2001 02 20.36641 10 49 08.03 +14 53 17.7 18.8   704 – Lincoln Laboratory ETS, New Mexico MPS 26620
2001 02 20.37586 10 49 07.76 +14 53 20.1 18.8   704 – Lincoln Laboratory ETS, New Mexico MPS 26620
2001 02 20.38081 10 49 07.57 +14 53 21.5 19.5   704 – Lincoln Laboratory ETS, New Mexico MPS 26620
2001 02 20.39025 10 49 07.29 +14 53 23.4 18.8   704 – Lincoln Laboratory ETS, New Mexico MPS 26620
2001 02 20.39502 10 49 07.14 +14 53 24.2 18.5   704 – Lincoln Laboratory ETS, New Mexico MPS 26620
2001 02 20.40450 10 49 06.85 +14 53 26.2 18.6   704 – Lincoln Laboratory ETS, New Mexico MPS 26620
2001 02 20.40925 10 49 06.77 +14 53 27.4 18.7   704 – Lincoln Laboratory ETS, New Mexico MPS 26620
2001 02 20.41868 10 49 06.48 +14 53 29.4 19.5   704 – Lincoln Laboratory ETS, New Mexico MPS 26620
2001 03 26.23898 10 32 50.62 +16 32 48.1 19.2   704 – Lincoln Laboratory ETS, New Mexico MPS 27791
2001 03 26.25180 10 32 50.28 +16 32 49.5 19.4   704 – Lincoln Laboratory ETS, New Mexico MPS 27791
2001 03 26.26414 10 32 50.01 +16 32 51.2 19.1   704 – Lincoln Laboratory ETS, New Mexico MPS 27791
2001 03 26.27649 10 32 49.73 +16 32 53.3 19.2   704 – Lincoln Laboratory ETS, New Mexico MPS 27791
2001 03 26.28896 10 32 49.42 +16 32 55.1 19.3   704 – Lincoln Laboratory ETS, New Mexico MPS 27791
2001 03 29.12148 10 31 45.57 +16 37 44.8 18.6 R 699 – Lowell Observatory-LONEOS MPS 27791
2001 03 29.14793 10 31 45.03 +16 37 46.4   699 – Lowell Observatory-LONEOS MPS 27791
2001 03 29.17444 10 31 44.31 +16 37 50.0   699 – Lowell Observatory-LONEOS MPS 27791
2001 03 29.20101 10 31 43.71 +16 37 51.9   699 – Lowell Observatory-LONEOS MPS 27791
2001 06 21.88378 10 42 40.65 +14 23 04.3 19.8 V 493 – Calar Alto MPS 32255
2001 06 21.89683 10 42 41.09 +14 23 01.1   493 – Calar Alto MPS 32255
2002 03 12.41633 13 05 51.12 +01 57 00.5 19.2   704 – Lincoln Laboratory ETS, New Mexico MPS 51705
2002 03 12.43461 13 05 50.63 +01 57 04.3 19.3   704 – Lincoln Laboratory ETS, New Mexico MPS 51705
2002 03 12.45279 13 05 50.19 +01 57 08.4 19.2   704 – Lincoln Laboratory ETS, New Mexico MPS 51705
2002 03 12.47083 13 05 49.75 +01 57 12.8 19.4   704 – Lincoln Laboratory ETS, New Mexico MPS 51705
2002 04 02.49552 12 56 11.26 +03 07 19.5 19.2   644 – Palomar Mountain/NEAT MPS 54557
2002 04 02.50612 12 56 10.94 +03 07 21.1 19.2   644 – Palomar Mountain/NEAT MPS 54557
2002 04 02.51689 12 56 10.63 +03 07 23.1 19.5   644 – Palomar Mountain/NEAT MPS 54557
2002 04 09.22306 12 52 52.58 +03 27 33.0 18.7 R 699 – Lowell Observatory-LONEOS MPS 54557
2002 04 09.23964 12 52 52.14 +03 27 36.4   699 – Lowell Observatory-LONEOS MPS 54557
2002 04 09.25616 12 52 51.71 +03 27 39.1   699 – Lowell Observatory-LONEOS MPS 54557
2002 04 09.27273 12 52 51.15 +03 27 41.5   699 – Lowell Observatory-LONEOS MPS 54557
2002 04 13.20464 12 50 56.78 +03 38 29.9 18.9   644 – Palomar Mountain/NEAT MPS 54557
2002 04 13.22820 12 50 56.09 +03 38 33.5 18.9   644 – Palomar Mountain/NEAT MPS 54557
2002 04 13.24943 12 50 55.46 +03 38 37.1 18.8   644 – Palomar Mountain/NEAT MPS 54557
2002 04 16.25872 12 49 29.72 +03 46 16.9 18.9   704 – Lincoln Laboratory ETS, New Mexico MPS 54557
2002 04 16.27277 12 49 29.35 +03 46 19.1 19.2   704 – Lincoln Laboratory ETS, New Mexico MPS 54557
2002 04 16.28680 12 49 28.90 +03 46 21.2 19.1   704 – Lincoln Laboratory ETS, New Mexico MPS 54557
